| time (UTC) | temp F | wind direction | speed MPH | gust MPH | rain 1hr in | rain 24hr in | rain mn in | humidity % | barometer mb |
| 20260505172813 | 54 | 99 | 1.0 | 5.0 | 0.00 | 0.01 | 0.00 | 76 | 1015.6 |
| 20260505172313 | 54 | 114 | 0.0 | 1.0 | 0.00 | 0.01 | 0.00 | 76 | 1015.6 |
| 20260505171814 | 54 | 110 | 0.0 | 2.0 | 0.00 | 0.01 | 0.00 | 76 | 1015.5 |
| 20260505171313 | 54 | 126 | 0.0 | 1.0 | 0.00 | 0.01 | 0.00 | 77 | 1015.5 |
| 20260505170813 | 54 | 107 | 0.0 | 1.0 | 0.00 | 0.01 | 0.00 | 77 | 1015.5 |
| 20260505170312 | 54 | 128 | 0.0 | 1.0 | 0.00 | 0.01 | 0.00 | 77 | 1015.6 |
| 20260505165812 | 54 | 238 | 0.0 | 1.0 | 0.00 | 0.01 | 0.00 | 78 | 1015.6 |
| 20260505165314 | 54 | 282 | 1.0 | 3.0 | 0.00 | 0.01 | 0.00 | 77 | 1015.7 |
| 20260505164812 | 55 | 293 | 0.0 | 6.0 | 0.00 | 0.01 | 0.00 | 77 | 1015.7 |
| 20260505164313 | 55 | 310 | 3.0 | 5.0 | 0.00 | 0.01 | 0.00 | 76 | 1015.7 |
| 20260505163813 | 55 | 312 | 3.0 | 6.0 | 0.00 | 0.01 | 0.00 | 75 | 1015.8 |
| 20260505163315 | 55 | 319 | 2.0 | 6.0 | 0.00 | 0.01 | 0.00 | 76 | 1015.7 |
| 20260505162813 | 55 | 312 | 4.0 | 6.0 | 0.00 | 0.01 | 0.00 | 76 | 1015.7 |
| 20260505162312 | 55 | 314 | 2.0 | 6.0 | 0.00 | 0.01 | 0.00 | 76 | 1015.7 |
| 20260505161815 | 55 | 310 | 4.0 | 6.0 | 0.00 | 0.01 | 0.00 | 76 | 1015.7 |
| 20260505161314 | 55 | 313 | 4.0 | 6.0 | 0.00 | 0.01 | 0.00 | 75 | 1015.6 |
| 20260505160813 | 55 | 313 | 5.0 | 8.0 | 0.00 | 0.01 | 0.00 | 75 | 1015.6 |
| 20260505160314 | 56 | 313 | 5.0 | 7.0 | 0.00 | 0.01 | 0.00 | 75 | 1015.7 |
| 20260505153315 | 57 | 281 | 1.0 | 5.0 | 0.00 | 0.01 | 0.00 | 72 | 1015.8 |
| 20260505152815 | 57 | 308 | 3.0 | 7.0 | 0.00 | 0.01 | 0.00 | 72 | 1015.8 |
| 20260505152313 | 57 | 299 | 2.0 | 5.0 | 0.00 | 0.01 | 0.00 | 72 | 1015.8 |
| 20260505151814 | 57 | 279 | 1.0 | 6.0 | 0.00 | 0.01 | 0.00 | 73 | 1015.8 |
| 20260505150815 | 56 | 293 | 2.0 | 5.0 | 0.00 | 0.01 | 0.00 | 72 | 1015.8 |
| 20260505150315 | 56 | 306 | 3.0 | 6.0 | 0.00 | 0.01 | 0.00 | 72 | 1015.8 |
| 20260505140315 | 56 | 302 | 3.0 | 6.0 | 0.00 | 0.01 | 0.00 | 72 | 1016.2 |
| 20260505124315 | 56 | 296 | 2.0 | 6.0 | 0.00 | 0.01 | 0.00 | 65 | 1016.2 |
| 20260505123816 | 56 | 300 | 4.0 | 7.0 | 0.00 | 0.01 | 0.00 | 65 | 1016.2 |
| 20260505123317 | 56 | 298 | 3.0 | 6.0 | 0.00 | 0.01 | 0.00 | 66 | 1016.2 |
| 20260505122815 | 56 | 304 | 1.0 | 3.0 | 0.00 | 0.01 | 0.00 | 67 | 1016.3 |
| 20260505122315 | 56 | 307 | 3.0 | 7.0 | 0.00 | 0.01 | 0.00 | 66 | 1016.3 |
| 20260505121817 | 56 | 298 | 2.0 | 7.0 | 0.00 | 0.01 | 0.00 | 67 | 1016.3 |
| 20260505121314 | 56 | 312 | 3.0 | 7.0 | 0.00 | 0.01 | 0.00 | 66 | 1016.2 |
| 20260505120817 | 56 | 309 | 1.0 | 3.0 | 0.00 | 0.01 | 0.00 | 67 | 1016.2 |
| 20260505120315 | 56 | 259 | 1.0 | 5.0 | 0.00 | 0.01 | 0.00 | 67 | 1016.2 |
| 20260505115815 | 56 | 154 | 1.0 | 7.0 | 0.00 | 0.01 | 0.00 | 67 | 1016.2 |
| 20260505115316 | 56 | 129 | 1.0 | 6.0 | 0.00 | 0.01 | 0.00 | 68 | 1016.3 |
| 20260505114817 | 56 | 268 | 0.0 | 5.0 | 0.00 | 0.01 | 0.00 | 67 | 1016.3 |
| 20260505114315 | 56 | 242 | 1.0 | 6.0 | 0.00 | 0.01 | 0.00 | 67 | 1016.3 |
| 20260505113815 | 55 | 140 | 1.0 | 6.0 | 0.00 | 0.01 | 0.00 | 67 | 1016.3 |
| 20260505113316 | 55 | 118 | 0.0 | 6.0 | 0.00 | 0.01 | 0.00 | 67 | 1016.2 |
| 20260505112817 | 55 | 193 | 1.0 | 3.0 | 0.00 | 0.01 | 0.00 | 66 | 1016.3 |
| 20260505112315 | 55 | 105 | 2.0 | 5.0 | 0.00 | 0.01 | 0.00 | 66 | 1016.4 |
| 20260505111816 | 55 | 278 | 1.0 | 6.0 | 0.00 | 0.01 | 0.00 | 66 | 1016.4 |
| 20260505111316 | 55 | 239 | 2.0 | 5.0 | 0.00 | 0.01 | 0.00 | 66 | 1016.3 |
| 20260505110815 | 55 | 268 | 1.0 | 6.0 | 0.00 | 0.01 | 0.00 | 66 | 1016.4 |
| 20260505110316 | 55 | 308 | 4.0 | 8.0 | 0.00 | 0.01 | 0.00 | 65 | 1016.4 |
| 20260505101816 | 54 | 296 | 3.0 | 12.0 | 0.00 | 0.01 | 0.00 | 69 | 1016.5 |
| 20260505101316 | 54 | 302 | 3.0 | 7.0 | 0.00 | 0.01 | 0.00 | 69 | 1016.5 |
| 20260505100817 | 54 | 307 | 6.0 | 9.0 | 0.00 | 0.01 | 0.00 | 68 | 1016.5 |
| 20260505100316 | 54 | 288 | 2.0 | 7.0 | 0.00 | 0.01 | 0.00 | 70 | 1016.5 |
| 20260505095816 | 55 | 308 | 3.0 | 9.0 | 0.00 | 0.01 | 0.00 | 71 | 1016.4 |
| 20260505095316 | 54 | 301 | 5.0 | 8.0 | 0.00 | 0.01 | 0.00 | 73 | 1016.5 |
| 20260505094817 | 54 | 276 | 1.0 | 5.0 | 0.00 | 0.01 | 0.00 | 75 | 1016.5 |
| 20260505094317 | 53 | 324 | 2.0 | 6.0 | 0.00 | 0.01 | 0.00 | 73 | 1016.5 |
| 20260505093816 | 53 | 309 | 5.0 | 10.0 | 0.00 | 0.01 | 0.00 | 74 | 1016.5 |
| 20260505093317 | 53 | 316 | 5.0 | 8.0 | 0.00 | 0.01 | 0.00 | 74 | 1016.5 |
| 20260505092816 | 53 | 302 | 4.0 | 7.0 | 0.00 | 0.01 | 0.00 | 74 | 1016.6 |
| 20260505091817 | 52 | 304 | 4.0 | 6.0 | 0.00 | 0.01 | 0.00 | 77 | 1016.5 |
| 20260505091318 | 52 | 302 | 3.0 | 9.0 | 0.00 | 0.01 | 0.00 | 78 | 1016.5 |
| 20260505090817 | 52 | 318 | 3.0 | 7.0 | 0.00 | 0.01 | 0.00 | 78 | 1016.5 |
| 20260505090318 | 52 | 320 | 2.0 | 6.0 | 0.00 | 0.01 | 0.00 | 79 | 1016.4 |
| 20260505085817 | 52 | 311 | 3.0 | 7.0 | 0.00 | 0.01 | 0.00 | 80 | 1016.5 |
| 20260505085317 | 51 | 306 | 4.0 | 6.0 | 0.00 | 0.01 | 0.00 | 79 | 1016.5 |
| 20260505084818 | 51 | 314 | 2.0 | 8.0 | 0.00 | 0.01 | 0.00 | 80 | 1016.5 |
| 20260505084316 | 51 | 310 | 3.0 | 7.0 | 0.00 | 0.01 | 0.00 | 79 | 1016.5 |
| 20260505083818 | 51 | 306 | 3.0 | 6.0 | 0.00 | 0.01 | 0.00 | 79 | 1016.5 |
| 20260505083317 | 51 | 313 | 4.0 | 7.0 | 0.00 | 0.01 | 0.00 | 79 | 1016.5 |
| 20260505082817 | 51 | 314 | 6.0 | 9.0 | 0.00 | 0.01 | 0.00 | 79 | 1016.5 |
| 20260505082317 | 51 | 303 | 1.0 | 6.0 | 0.00 | 0.01 | 0.00 | 80 | 1016.5 |
| 20260505081817 | 51 | 304 | 2.0 | 7.0 | 0.00 | 0.01 | 0.00 | 80 | 1016.6 |
| 20260505081318 | 51 | 310 | 2.0 | 6.0 | 0.00 | 0.01 | 0.00 | 80 | 1016.5 |
| 20260505080317 | 50 | 298 | 2.0 | 6.0 | 0.00 | 0.01 | 0.00 | 82 | 1016.5 |
| 20260505075817 | 50 | 310 | 2.0 | 6.0 | 0.00 | 0.01 | 0.00 | 82 | 1016.5 |
| 20260505075317 | 50 | 311 | 3.0 | 7.0 | 0.00 | 0.01 | 0.00 | 82 | 1016.5 |
| 20260505074317 | 50 | 297 | 1.0 | 5.0 | 0.00 | 0.01 | 0.00 | 83 | 1016.5 |
| 20260505072817 | 49 | 308 | 2.0 | 6.0 | 0.00 | 0.01 | 0.00 | 84 | 1016.4 |
| 20260505072317 | 49 | 311 | 3.0 | 6.0 | 0.00 | 0.01 | 0.00 | 84 | 1016.4 |
| 20260505071318 | 49 | 312 | 3.0 | 6.0 | 0.00 | 0.01 | 0.00 | 85 | 1016.5 |
| 20260505070319 | 48 | 311 | 2.0 | 6.0 | 0.00 | 0.01 | 0.00 | 85 | 1016.5 |
| 20260505065818 | 48 | 308 | 3.0 | 6.0 | 0.00 | 0.01 | 0.00 | 85 | 1016.5 |
| 20260505065318 | 48 | 308 | 3.0 | 6.0 | 0.00 | 0.01 | 0.00 | 85 | 1016.6 |
| 20260505064318 | 48 | 307 | 3.0 | 6.0 | 0.00 | 0.01 | 0.00 | 86 | 1016.6 |
| 20260505063818 | 48 | 311 | 1.0 | 6.0 | 0.00 | 0.01 | 0.00 | 86 | 1016.6 |
| 20260505063317 | 48 | 311 | 3.0 | 6.0 | 0.00 | 0.01 | 0.00 | 86 | 1016.6 |
| 20260505062819 | 48 | 312 | 3.0 | 6.0 | 0.00 | 0.01 | 0.00 | 86 | 1016.6 |
| 20260505062319 | 48 | 312 | 3.0 | 6.0 | 0.00 | 0.01 | 0.00 | 86 | 1016.6 |
| 20260505061819 | 47 | 307 | 2.0 | 6.0 | 0.00 | 0.01 | 0.00 | 86 | 1016.6 |
| 20260505061318 | 47 | 312 | 3.0 | 6.0 | 0.00 | 0.01 | 0.00 | 86 | 1016.6 |
| 20260505060818 | 47 | 314 | 3.0 | 6.0 | 0.00 | 0.01 | 0.00 | 85 | 1016.5 |
| 20260505060318 | 47 | 314 | 2.0 | 6.0 | 0.00 | 0.01 | 0.00 | 85 | 1016.5 |
| 20260505055818 | 47 | 309 | 3.0 | 6.0 | 0.00 | 0.01 | 0.00 | 85 | 1016.6 |
| 20260505055318 | 47 | 311 | 3.0 | 6.0 | 0.00 | 0.01 | 0.00 | 85 | 1016.5 |
| 20260505054818 | 47 | 305 | 2.0 | 6.0 | 0.00 | 0.01 | 0.00 | 85 | 1016.6 |
| 20260505053827 | 47 | 311 | 3.0 | 6.0 | 0.00 | 0.01 | 0.00 | 85 | 1016.6 |
| 20260505053327 | 47 | 305 | 3.0 | 6.0 | 0.00 | 0.01 | 0.00 | 85 | 1016.6 |
| 20260505051830 | 47 | 312 | 1.0 | 6.0 | 0.00 | 0.01 | 0.00 | 84 | 1016.5 |
| 20260505050819 | 47 | 314 | 2.0 | 5.0 | 0.00 | 0.01 | 0.00 | 84 | 1016.4 |
| 20260505041320 | 46 | 306 | 0.0 | 1.0 | 0.00 | 0.01 | 0.00 | 86 | 1016.3 |
| 20260505040820 | 46 | 307 | 0.0 | 1.0 | 0.00 | 0.01 | 0.00 | 87 | 1016.3 |
| 20260505040320 | 45 | 278 | 0.0 | 1.0 | 0.00 | 0.01 | 0.00 | 87 | 1016.2 |
| 20260505035821 | 45 | 276 | 0.0 | 1.0 | 0.00 | 0.01 | 0.00 | 87 | 1016.2 |
| 20260505035320 | 45 | 276 | 0.0 | 1.0 | 0.00 | 0.01 | 0.00 | 87 | 1016.2 |
| 20260505034819 | 45 | 275 | 0.0 | 1.0 | 0.00 | 0.01 | 0.00 | 86 | 1016.3 |
| 20260505034320 | 46 | 275 | 0.0 | 1.0 | 0.00 | 0.01 | 0.00 | 86 | 1016.4 |
| 20260505033819 | 46 | 302 | 0.0 | 1.0 | 0.00 | 0.01 | 0.00 | 86 | 1016.3 |
| 20260505033320 | 46 | 313 | 0.0 | 2.0 | 0.00 | 0.01 | 0.00 | 86 | 1016.3 |
| 20260505032819 | 46 | 321 | 1.0 | 3.0 | 0.00 | 0.01 | 0.00 | 86 | 1016.4 |
| 20260505032320 | 46 | 315 | 1.0 | 5.0 | 0.00 | 0.01 | 0.00 | 86 | 1016.4 |
| 20260505031821 | 46 | 310 | 1.0 | 2.0 | 0.00 | 0.01 | 0.00 | 86 | 1016.4 |
| 20260505031319 | 46 | 308 | 0.0 | 1.0 | 0.00 | 0.01 | 0.00 | 86 | 1016.4 |
| 20260505030321 | 46 | 305 | 1.0 | 2.0 | 0.00 | 0.01 | 0.00 | 86 | 1016.5 |
| 20260505025319 | 46 | 315 | 1.0 | 2.0 | 0.00 | 0.01 | 0.00 | 85 | 1016.5 |
| 20260505024320 | 46 | 314 | 0.0 | 2.0 | 0.00 | 0.01 | 0.00 | 85 | 1016.4 |
| 20260505023820 | 46 | 297 | 0.0 | 2.0 | 0.00 | 0.01 | 0.00 | 85 | 1016.4 |
| 20260505023319 | 46 | 326 | 1.0 | 2.0 | 0.00 | 0.01 | 0.00 | 85 | 1016.3 |
| 20260505022819 | 46 | 309 | 1.0 | 3.0 | 0.00 | 0.01 | 0.00 | 85 | 1016.4 |
| 20260505022320 | 46 | 314 | 1.0 | 3.0 | 0.00 | 0.01 | 0.00 | 85 | 1016.5 |
| 20260505021819 | 47 | 311 | 2.0 | 3.0 | 0.00 | 0.01 | 0.00 | 85 | 1016.4 |
| 20260505020819 | 47 | 308 | 2.0 | 5.0 | 0.00 | 0.01 | 0.00 | 85 | 1016.4 |
| 20260505020321 | 47 | 311 | 2.0 | 6.0 | 0.00 | 0.01 | 0.00 | 86 | 1016.4 |
| 20260505015320 | 47 | 292 | 1.0 | 2.0 | 0.00 | 0.01 | 0.00 | 87 | 1016.4 |
| 20260505014821 | 47 | 314 | 1.0 | 2.0 | 0.00 | 0.01 | 0.00 | 87 | 1016.4 |
| 20260505013820 | 47 | 304 | 3.0 | 6.0 | 0.00 | 0.01 | 0.00 | 87 | 1016.4 |
| 20260505013320 | 47 | 314 | 4.0 | 7.0 | 0.00 | 0.01 | 0.00 | 87 | 1016.4 |
| 20260505012820 | 47 | 313 | 4.0 | 7.0 | 0.00 | 0.01 | 0.00 | 87 | 1016.3 |
| 20260505012321 | 48 | 311 | 2.0 | 5.0 | 0.00 | 0.01 | 0.00 | 88 | 1016.3 |
| 20260505011821 | 48 | 312 | 2.0 | 5.0 | 0.00 | 0.01 | 0.00 | 88 | 1016.3 |
| 20260505011320 | 48 | 306 | 2.0 | 3.0 | 0.00 | 0.01 | 0.00 | 88 | 1016.4 |
| 20260505010821 | 48 | 306 | 2.0 | 6.0 | 0.00 | 0.01 | 0.00 | 88 | 1016.4 |
| 20260505010322 | 48 | 306 | 3.0 | 6.0 | 0.00 | 0.01 | 0.00 | 88 | 1016.4 |
| 20260505005821 | 48 | 301 | 3.0 | 6.0 | 0.00 | 0.01 | 0.00 | 88 | 1016.4 |
| 20260505005321 | 49 | 301 | 2.0 | 5.0 | 0.00 | 0.01 | 0.00 | 88 | 1016.5 |
| 20260505004821 | 49 | 307 | 3.0 | 6.0 | 0.00 | 0.01 | 0.00 | 88 | 1016.4 |
| 20260505004321 | 49 | 311 | 3.0 | 6.0 | 0.00 | 0.01 | 0.00 | 88 | 1016.5 |
| 20260505003321 | 49 | 313 | 3.0 | 6.0 | 0.00 | 0.01 | 0.00 | 88 | 1016.4 |
| 20260505002822 | 50 | 304 | 2.0 | 5.0 | 0.00 | 0.01 | 0.00 | 88 | 1016.4 |
| 20260505002320 | 50 | 310 | 2.0 | 6.0 | 0.00 | 0.01 | 0.00 | 88 | 1016.5 |
| 20260505001821 | 50 | 305 | 2.0 | 5.0 | 0.00 | 0.01 | 0.00 | 88 | 1016.4 |
| 20260505000821 | 51 | 307 | 2.0 | 5.0 | 0.00 | 0.01 | 0.00 | 88 | 1016.4 |
| 20260505000322 | 51 | 307 | 2.0 | 5.0 | 0.00 | 0.01 | 0.00 | 88 | 1016.4 |
| 20260504235822 | 51 | 311 | 3.0 | 7.0 | 0.00 | 0.01 | 0.00 | 88 | 1016.5 |
| 20260504235321 | 51 | 315 | 3.0 | 6.0 | 0.00 | 0.01 | 0.00 | 88 | 1016.6 |
| 20260504234822 | 51 | 312 | 3.0 | 6.0 | 0.00 | 0.01 | 0.00 | 88 | 1016.6 |
| 20260504233821 | 52 | 311 | 3.0 | 6.0 | 0.00 | 0.01 | 0.00 | 87 | 1016.5 |
| 20260504232321 | 52 | 301 | 1.0 | 2.0 | 0.00 | 0.01 | 0.00 | 86 | 1016.4 |
| 20260504231821 | 52 | 310 | 1.0 | 5.0 | 0.00 | 0.01 | 0.00 | 86 | 1016.5 |
| 20260504231322 | 53 | 312 | 1.0 | 3.0 | 0.00 | 0.01 | 0.00 | 86 | 1016.5 |
| 20260504230322 | 53 | 306 | 1.0 | 5.0 | 0.00 | 0.01 | 0.00 | 86 | 1016.4 |
| 20260504225821 | 53 | 313 | 1.0 | 3.0 | 0.00 | 0.01 | 0.01 | 86 | 1016.4 |
| 20260504224822 | 53 | 307 | 2.0 | 5.0 | 0.00 | 0.01 | 0.01 | 86 | 1016.4 |
| 20260504224322 | 53 | 310 | 2.0 | 5.0 | 0.00 | 0.01 | 0.01 | 86 | 1016.4 |
| 20260504223821 | 53 | 311 | 1.0 | 3.0 | 0.00 | 0.01 | 0.01 | 86 | 1016.5 |
| 20260504223322 | 53 | 310 | 1.0 | 3.0 | 0.00 | 0.01 | 0.01 | 86 | 1016.5 |
| 20260504222825 | 53 | 312 | 3.0 | 6.0 | 0.00 | 0.01 | 0.01 | 86 | 1016.6 |
| 20260504222322 | 53 | 312 | 2.0 | 6.0 | 0.00 | 0.01 | 0.01 | 85 | 1016.6 |
| 20260504221821 | 53 | 312 | 2.0 | 3.0 | 0.00 | 0.01 | 0.01 | 85 | 1016.6 |
| 20260504221323 | 54 | 312 | 2.0 | 5.0 | 0.00 | 0.01 | 0.01 | 85 | 1016.6 |
| 20260504220821 | 54 | 310 | 2.0 | 5.0 | 0.00 | 0.01 | 0.01 | 85 | 1016.7 |
| 20260504220322 | 54 | 312 | 2.0 | 5.0 | 0.00 | 0.01 | 0.01 | 85 | 1016.6 |
| 20260504215823 | 54 | 310 | 2.0 | 3.0 | 0.00 | 0.01 | 0.01 | 84 | 1016.6 |
| 20260504215321 | 54 | 318 | 1.0 | 2.0 | 0.00 | 0.01 | 0.01 | 84 | 1016.6 |
| 20260504214822 | 54 | 313 | 1.0 | 3.0 | 0.00 | 0.01 | 0.01 | 84 | 1016.6 |
| 20260504214322 | 54 | 316 | 1.0 | 3.0 | 0.00 | 0.01 | 0.01 | 84 | 1016.6 |
| 20260504213823 | 54 | 318 | 1.0 | 3.0 | 0.00 | 0.01 | 0.01 | 84 | 1016.6 |
| 20260504213322 | 54 | 314 | 1.0 | 2.0 | 0.00 | 0.01 | 0.01 | 84 | 1016.6 |
| 20260504212823 | 54 | 315 | 0.0 | 2.0 | 0.00 | 0.01 | 0.01 | 84 | 1016.6 |
| 20260504212322 | 54 | 317 | 1.0 | 2.0 | 0.00 | 0.01 | 0.01 | 85 | 1016.6 |
| 20260504211822 | 54 | 324 | 1.0 | 3.0 | 0.00 | 0.01 | 0.01 | 85 | 1016.6 |
| 20260504210823 | 54 | 311 | 1.0 | 2.0 | 0.00 | 0.01 | 0.01 | 85 | 1016.5 |
| 20260504210322 | 54 | 278 | 0.0 | 1.0 | 0.00 | 0.01 | 0.01 | 86 | 1016.6 |
| 20260504205824 | 54 | 277 | 0.0 | 1.0 | 0.00 | 0.01 | 0.01 | 86 | 1016.5 |
| 20260504205323 | 55 | 276 | 0.0 | 2.0 | 0.00 | 0.01 | 0.01 | 85 | 1016.5 |
| 20260504204822 | 55 | 308 | 0.0 | 0.0 | 0.00 | 0.01 | 0.01 | 85 | 1016.4 |
| 20260504204323 | 55 | 308 | 0.0 | 0.0 | 0.00 | 0.01 | 0.01 | 85 | 1016.4 |
| 20260504203322 | 55 | 308 | 0.0 | 0.0 | 0.00 | 0.01 | 0.01 | 85 | 1016.4 |
| 20260504202323 | 55 | 306 | 0.0 | 2.0 | 0.00 | 0.01 | 0.01 | 85 | 1016.3 |
| 20260504201823 | 55 | 299 | 0.0 | 1.0 | 0.00 | 0.01 | 0.01 | 85 | 1016.2 |
| 20260504201323 | 55 | 306 | 0.0 | 0.0 | 0.00 | 0.01 | 0.01 | 85 | 1016.2 |
| 20260504200822 | 55 | 284 | 0.0 | 1.0 | 0.00 | 0.01 | 0.01 | 85 | 1016.2 |
| 20260504195824 | 55 | 304 | 0.0 | 0.0 | 0.00 | 0.01 | 0.01 | 85 | 1016.2 |
| 20260504195324 | 55 | 308 | 0.0 | 1.0 | 0.00 | 0.01 | 0.01 | 85 | 1016.2 |
| 20260504194325 | 55 | 311 | 0.0 | 0.0 | 0.00 | 0.01 | 0.01 | 86 | 1016.2 |
| 20260504193823 | 55 | 311 | 0.0 | 0.0 | 0.00 | 0.01 | 0.01 | 86 | 1016.2 |
| 20260504193324 | 55 | 311 | 0.0 | 0.0 | 0.00 | 0.01 | 0.01 | 86 | 1016.2 |
| 20260504192824 | 55 | 311 | 0.0 | 0.0 | 0.00 | 0.01 | 0.01 | 86 | 1016.1 |
| 20260504191825 | 55 | 305 | 0.0 | 0.0 | 0.00 | 0.01 | 0.01 | 86 | 1016.0 |
| 20260504191323 | 55 | 305 | 0.0 | 0.0 | 0.00 | 0.01 | 0.01 | 86 | 1016.0 |
| 20260504190823 | 55 | 305 | 0.0 | 0.0 | 0.00 | 0.01 | 0.01 | 86 | 1016.0 |
| 20260504190325 | 55 | 305 | 0.0 | 0.0 | 0.00 | 0.01 | 0.01 | 86 | 1016.0 |
| 20260504185823 | 55 | 304 | 0.0 | 0.0 | 0.00 | 0.01 | 0.01 | 86 | 1016.0 |
| 20260504185324 | 55 | 306 | 0.0 | 0.0 | 0.00 | 0.01 | 0.01 | 86 | 1016.0 |
| 20260504184825 | 55 | 308 | 0.0 | 0.0 | 0.00 | 0.01 | 0.01 | 86 | 1016.0 |
| 20260504184323 | 55 | 304 | 0.0 | 2.0 | 0.00 | 0.01 | 0.01 | 86 | 1016.0 |
| 20260504183823 | 55 | 306 | 1.0 | 2.0 | 0.00 | 0.01 | 0.01 | 86 | 1016.0 |
| 20260504183323 | 55 | 304 | 1.0 | 2.0 | 0.00 | 0.01 | 0.01 | 86 | 1016.0 |
| 20260504182824 | 55 | 310 | 0.0 | 2.0 | 0.01 | 0.01 | 0.01 | 86 | 1016.0 |
| 20260504182323 | 55 | 303 | 0.0 | 2.0 | 0.01 | 0.01 | 0.01 | 86 | 1015.9 |
| 20260504181823 | 55 | 295 | 0.0 | 1.0 | 0.01 | 0.01 | 0.01 | 86 | 1015.9 |
| 20260504181324 | 55 | 265 | 0.0 | 1.0 | 0.01 | 0.01 | 0.01 | 86 | 1015.9 |
| 20260504180825 | 55 | 119 | 0.0 | 1.0 | 0.01 | 0.01 | 0.01 | 86 | 1015.9 |
| 20260504180323 | 55 | 119 | 0.0 | 0.0 | 0.01 | 0.01 | 0.01 | 86 | 1015.9 |
| 20260504175824 | 55 | 119 | 0.0 | 1.0 | 0.01 | 0.01 | 0.01 | 87 | 1015.8 |
| 20260504175326 | 55 | 100 | 0.0 | 0.0 | 0.01 | 0.01 | 0.01 | 87 | 1015.8 |
| 20260504174824 | 54 | 273 | 0.0 | 0.0 | 0.01 | 0.01 | 0.01 | 87 | 1015.9 |
| 20260504174323 | 55 | 294 | 0.0 | 0.0 | 0.01 | 0.01 | 0.01 | 87 | 1016.0 |
| 20260504173826 | 55 | 298 | 0.0 | 2.0 | 0.01 | 0.01 | 0.01 | 87 | 1015.9 |
| 20260504173323 | 55 | 303 | 1.0 | 2.0 | 0.01 | 0.01 | 0.01 | 87 | 1016.0 |